Location: ???????
(55.3754°N, 39.3545°E)
Time: 21:32:54
(UTC+00:00)

NOSS 0 Rocket - Pass Details

Date: 14 April 2026
Orbit: 935 x 953 km, 70.0° (Epoch: 16 May)

Event Time Altitude Azimuth Distance (km) Brightness Sun altitude
Rises 18:35:38 0° 212° (SSW) 3,619 6.8 -16.3°
Reaches altitude 10° 18:38:10 10° 212° (SSW) 2,676 6.1 -16.5°
Maximum altitude 18:44:24 87° 126° (SE) 961 3.9 -17.1°
Drops below altitude 10° 18:50:40 10° 37° (NE) 2,686 6.5 -17.7°
Sets 18:53:12 0° 37° (NE) 3,632 7.2 -17.9°
